Simultaneous Nadir Overpasses (SNOs) Predictions

Prediction of SNOs between NOAA-20 and NOAA-19 Satellite Orbit:

Table of predicted SNOs for the next 14.0 days since TLE Epoch: 12/22/2017
Index Date (NOAA-20) Time (NOAA-20) Lat,Lon (NOAA-20) SZA (NOAA-20 ) Date (NOAA-19) Time (NOAA-19) Lat,Lon (NOAA-19) SZA (NOAA-19 ) Distance(km) Time Diff (sec)
1 01/03/2018 01:11:04 -80.71, -65.07 73.53 01/03/2018 01:09:51 -80.65, -66.24 73.40 21.99 73
2 01/03/2018 02:01:46 80.70, 102.42 106.44 01/03/2018 02:00:45 80.71, 102.55 106.47 2.60 61
3 01/03/2018 02:52:30 -80.71, -90.49 73.53 01/03/2018 02:51:49 -80.69, -90.56 73.51 2.09 41
4 01/03/2018 03:43:12 80.70, 77.00 106.45 01/03/2018 03:42:46 80.71, 77.16 106.45 3.20 26
5 01/03/2018 04:33:56 -80.71,-115.91 73.52 01/03/2018 04:33:50 -80.70,-115.93 73.53 1.67 6
6 01/03/2018 05:24:38 80.70, 51.58 106.45 01/03/2018 05:24:48 80.70, 51.42 106.47 2.88 10
7 01/03/2018 06:15:22 -80.72,-141.32 73.52 01/03/2018 06:15:51 -80.70,-141.31 73.55 1.52 29
8 01/03/2018 07:06:04 80.71, 26.16 106.46 01/03/2018 07:06:49 80.71, 26.04 106.45 2.23 45




NCC Satellite Simultaneous Nadir Overpasses (SNOs) Prediction Service
